Wind_Speed
36 35 32 30 28 26 24 23 21 20 19 19 20 20 21 21 20 19 19 20 20 19 19 18 19 19 20 21 21 21 21 22 22 24 25 25 24 24
38 37 35 34 32 30 28 27 25 24 23 22 21 21 21 22 22 20 20 20 21 20 20 19 19 20 20 21 21 21 22 22 23 25 25 25 25 24
38 36 35 35 34 32 31 30 30 28 27 25 25 23 23 23 23 22 21 22 22 22 21 20 20 20 20 20 20 21 21 22 23 24 25 24 23 22
36 36 36 35 34 33 32 33 33 32 30 29 28 27 26 26 26 25 24 23 23 23 22 21 20 20 20 20 19 20 21 22 23 23 22 21 20 20
32 35 35 35 34 33 33 33 33 33 33 32 32 30 29 29 29 28 26 25 25 24 24 23 22 22 21 20 20 20 21 22 22 21 20 19 19 21
29 31 33 35 35 35 34 35 35 35 34 34 35 34 33 32 31 30 28 26 26 26 25 24 23 22 21 20 20 20 21 21 21 19 19 19 20 22
26 28 31 33 35 36 36 36 36 36 36 35 36 36 34 34 33 31 28 26 26 26 25 24 23 21 20 20 20 20 20 20 20 19 19 20 20 22
25 26 28 30 33 35 37 37 37 36 35 35 34 33 34 34 34 31 28 26 26 26 25 24 23 22 22 22 22 22 21 21 20 20 20 20 20 22
26 27 27 28 29 32 35 36 37 36 35 35 33 32 33 33 33 31 28 27 27 27 26 24 24 24 24 23 23 22 22 22 22 21 20 20 20 20
26 26 27 28 28 28 31 34 35 36 36 35 34 34 33 32 31 30 29 30 29 28 26 25 25 24 24 24 23 23 22 22 22 21 21 20 19 18
26 26 27 28 28 27 27 30 32 34 34 35 35 35 34 33 32 31 31 32 31 29 26 26 25 25 25 25 24 23 22 22 21 20 20 20 18 18
27 26 26 26 26 27 27 27 28 32 33 34 36 37 36 34 33 33 33 33 33 30 27 26 26 26 25 25 24 23 22 22 21 20 20 20 19 18
27 26 24 24 24 25 26 27 27 28 31 34 35 37 36 35 34 35 35 34 33 30 28 27 27 27 26 25 25 24 23 22 21 20 20 20 20 19
27 26 24 23 23 24 25 26 27 27 28 31 34 36 36 36 35 35 35 36 35 32 29 29 29 29 28 27 26 26 25 24 23 21 20 20 21 21
26 25 24 22 22 22 23 23 25 26 26 28 30 33 36 36 36 37 37 37 37 35 33 31 31 31 30 30 29 28 28 26 25 23 22 22 22 23
24 23 23 22 22 21 21 22 22 23 24 26 28 31 34 37 38 39 39 39 39 37 36 35 34 33 33 32 31 30 30 29 27 26 25 25 25 25
21 20 21 21 22 22 22 21 21 22 23 24 25 28 32 35 39 41 42 43 42 40 38 37 36 36 35 33 33 33 32 31 30 29 29 29 29 29
18 18 19 20 21 22 23 23 23 22 22 23 24 26 29 32 35 38 41 43 43 42 40 38 37 37 36 34 33 34 33 33 32 31 31 32 33 33
16 17 18 19 21 22 23 23 23 22 22 22 23 24 26 28 32 34 37 39 41 42 41 39 37 36 35 34 33 35 35 34 34 34 35 36 37 38
14 16 18 20 21 22 23 23 23 23 23 23 24 24 25 26 27 29 32 35 37 40 40 39 38 37 36 36 36 36 35 35 36 37 39 40 42 43
14 16 17 19 20 21 21 22 23 24 25 26 26 27 27 28 29 29 30 31 33 34 36 37 37 38 38 38 38 36 36 37 38 39 41 43 44 44
12 14 16 17 18 20 21 22 24 25 26 27 28 29 29 30 31 32 33 33 33 33 34 35 36 36 37 37 36 36 36 37 38 39 40 41 42 41
11 13 14 15 16 18 19 20 21 22 23 24 25 27 29 31 32 34 35 35 36 35 35 34 34 34 34 35 35 35 36 37 37 37 35 33 34 35
Wind_Direction
235 232 232 233 235 240 245 248 250 251 247 242 242 244 246 246 248 251 252 252 250 247 245 246 247 248 249 251 254 259 262 263 263 267 273 277 277 275
236 234 234 233 235 242 246 246 246 246 246 243 240 244 248 248 248 249 251 252 250 248 246 247 250 253 254 256 259 262 263 264 266 270 274 275 276 275
234 232 233 234 236 244 247 246 246 245 246 247 245 244 251 253 251 250 251 252 252 250 249 251 254 257 258 260 261 262 264 267 270 273 274 275 276 276
232 230 231 233 238 244 248 247 246 244 245 248 250 250 252 254 254 253 252 253 253 253 253 253 256 258 259 260 261 262 265 269 272 274 274 275 277 280
233 232 232 233 239 244 247 246 245 246 246 249 253 254 253 254 254 254 254 255 255 255 254 256 258 258 258 258 261 263 266 270 272 272 271 275 282 289
240 239 238 240 242 244 245 246 246 248 249 251 253 254 253 252 252 253 254 256 256 255 256 257 257 256 257 259 261 265 269 272 272 269 272 279 287 294
246 246 245 245 244 245 246 247 248 249 252 254 254 252 251 251 250 251 253 254 253 252 253 255 254 253 256 261 264 267 270 271 268 268 273 281 289 297
250 250 250 249 247 246 246 247 247 249 252 254 253 252 250 248 247 248 248 248 248 249 250 251 251 252 255 259 263 267 269 269 267 267 272 280 289 296
251 251 251 250 249 247 247 247 247 248 249 249 249 249 247 246 244 243 242 243 246 247 248 250 253 256 256 258 262 266 268 269 267 267 269 277 284 292
248 248 249 250 251 249 248 247 247 247 247 247 245 245 244 244 242 239 239 242 245 247 249 252 256 258 259 259 262 265 268 269 268 266 267 271 277 284
246 247 249 250 250 251 250 247 246 245 245 244 242 240 240 240 238 235 238 242 246 248 250 253 257 260 261 261 262 264 266 268 267 265 264 266 269 273
247 248 248 249 251 251 253 251 247 244 243 242 241 239 238 237 235 235 238 242 246 247 249 252 256 259 262 263 263 263 264 266 266 265 261 262 264 266
250 250 250 250 252 253 254 256 253 248 244 245 244 241 239 236 235 235 238 241 245 247 250 251 254 258 262 265 265 264 264 265 265 263 261 259 259 261
251 252 252 253 253 255 256 258 260 257 252 249 246 243 240 237 235 236 237 241 244 247 249 250 252 256 261 265 267 266 265 264 264 262 260 258 257 257
251 252 252 252 253 255 258 260 261 262 260 254 249 245 242 238 237 238 239 241 245 247 248 249 252 255 259 264 268 267 265 263 263 262 260 257 255 254
249 249 249 250 251 254 257 261 263 265 265 259 253 248 245 241 239 239 240 242 245 247 247 248 251 254 258 263 266 268 266 262 261 260 261 259 256 254
242 244 245 247 250 253 258 261 265 269 269 264 257 252 249 246 244 243 242 243 245 246 247 248 251 254 257 261 264 266 265 262 260 260 260 259 259 257
237 241 245 248 251 254 257 261 265 268 269 265 261 256 252 249 247 246 246 246 246 245 245 248 251 253 256 260 261 263 263 261 260 262 264 263 261 260
234 242 247 251 254 256 258 259 262 266 268 267 265 261 259 256 253 252 251 250 249 247 246 247 250 253 256 258 259 261 262 260 260 262 267 269 268 265
242 248 252 255 258 260 260 260 262 265 268 269 269 267 265 263 261 260 258 256 255 253 251 248 250 254 257 258 259 260 260 260 260 263 267 270 271 269
251 253 256 259 261 262 262 263 265 267 270 271 270 268 267 265 264 263 261 260 259 257 254 253 253 254 255 257 259 260 261 261 262 265 267 269 270 269
256 258 261 263 263 263 263 264 267 269 270 270 270 268 266 265 264 262 261 261 260 258 256 255 254 254 256 257 258 259 260 263 267 268 268 269 267 265
269 269 269 268 267 266 266 267 269 271 272 272 272 271 269 266 264 263 261 259 258 256 255 255 254 254 255 255 256 257 260 264 266 266 265 265 266 265
Height
5811 5815 5819 5822 5824 5827 5830 5832 5835 5836 5838 5840 5841 5842 5843 5844 5845 5846 5848 5849 5850 5851 5852 5853 5854 5856 5857 5858 5859 5860 5861 5861 5862 5863 5863 5862 5862 5862
5804 5808 5812 5816 5819 5822 5824 5827 5829 5831 5833 5835 5837 5838 5839 5840 5841 5842 5843 5844 5846 5847 5848 5849 5850 5850 5851 5852 5853 5854 5855 5855 5856 5857 5856 5856 5855 5855
5796 5801 5805 5809 5813 5815 5818 5820 5823 5826 5827 5829 5831 5833 5835 5836 5836 5838 5839 5840 5841 5842 5843 5844 5844 5845 5846 5847 5847 5848 5849 5849 5850 5850 5849 5849 5848 5848
5789 5794 5798 5802 5806 5808 5811 5813 5816 5819 5821 5823 5824 5827 5830 5830 5831 5832 5834 5835 5836 5837 5838 5838 5839 5840 5840 5841 5842 5842 5843 5843 5843 5843 5842 5842 5842 5841
5783 5787 5790 5794 5798 5801 5803 5806 5809 5812 5815 5817 5818 5820 5823 5824 5825 5827 5828 5829 5830 5831 5832 5833 5833 5834 5835 5835 5836 5836 5836 5836 5836 5836 5836 5836 5835 5834
5778 5780 5783 5786 5790 5793 5796 5799 5801 5804 5807 5809 5811 5813 5815 5817 5819 5820 5822 5823 5824 5824 5825 5826 5827 5828 5829 5829 5830 5830 5830 5830 5830 5830 5830 5830 5829 5827
5772 5774 5776 5778 5781 5784 5787 5790 5793 5796 5798 5800 5802 5804 5807 5809 5811 5813 5815 5816 5817 5818 5819 5820 5821 5822 5822 5823 5823 5824 5824 5824 5824 5824 5824 5824 5823 5820
5765 5767 5769 5770 5773 5776 5778 5781 5785 5787 5789 5792 5794 5796 5799 5801 5803 5806 5808 5810 5811 5812 5812 5813 5815 5816 5817 5817 5817 5817 5817 5818 5818 5818 5818 5818 5817 5815
5759 5760 5762 5763 5765 5767 5770 5772 5776 5778 5781 5783 5786 5788 5790 5793 5796 5799 5801 5803 5804 5804 5805 5807 5808 5810 5811 5811 5812 5812 5812 5812 5812 5812 5812 5812 5811 5810
5752 5754 5755 5757 5758 5760 5762 5764 5767 5769 5772 5775 5778 5780 5782 5785 5789 5792 5794 5795 5796 5797 5799 5800 5802 5803 5804 5805 5806 5806 5806 5806 5806 5806 5806 5806 5806 5805
5745 5746 5748 5750 5751 5753 5755 5757 5759 5761 5763 5766 5769 5771 5774 5777 5780 5784 5786 5787 5788 5790 5792 5794 5795 5796 5797 5798 5799 5800 5800 5800 5800 5800 5800 5800 5800 5800
5737 5739 5741 5743 5744 5746 5748 5749 5750 5751 5754 5756 5759 5762 5765 5768 5772 5775 5777 5779 5781 5784 5786 5787 5788 5789 5790 5791 5792 5793 5793 5794 5794 5794 5794 5794 5794 5794
5730 5732 5734 5736 5737 5739 5741 5742 5742 5743 5745 5747 5750 5753 5756 5760 5763 5766 5769 5771 5773 5776 5779 5780 5781 5781 5783 5784 5784 5785 5786 5787 5787 5788 5788 5789 5789 5789
5722 5725 5727 5729 5731 5732 5734 5734 5735 5736 5737 5739 5741 5744 5748 5751 5754 5757 5760 5762 5765 5768 5771 5772 5772 5774 5775 5776 5777 5778 5778 5779 5780 5781 5782 5782 5782 5783
5715 5718 5720 5722 5724 5726 5727 5728 5729 5729 5730 5732 5733 5736 5739 5742 5745 5748 5751 5754 5756 5759 5761 5763 5764 5765 5767 5768 5769 5769 5770 5771 5772 5773 5774 5775 5775 5775
5708 5711 5713 5716 5718 5720 5721 5722 5722 5723 5723 5724 5725 5727 5730 5732 5735 5738 5741 5744 5747 5749 5751 5753 5755 5756 5758 5759 5760 5761 5761 5762 5764 5765 5765 5766 5767 5767
5702 5705 5707 5710 5712 5714 5715 5716 5716 5717 5717 5717 5718 5719 5720 5723 5725 5728 5731 5734 5736 5739 5741 5743 5745 5747 5748 5750 5751 5751 5752 5753 5754 5755 5756 5757 5757 5758
5698 5700 5703 5705 5707 5708 5709 5710 5711 5711 5710 5711 5711 5712 5712 5714 5716 5718 5720 5723 5725 5728 5730 5732 5734 5736 5738 5740 5741 5741 5742 5743 5744 5745 5745 5746 5747 5748
5694 5696 5698 5700 5701 5702 5703 5704 5705 5705 5705 5705 5705 5705 5705 5706 5707 5708 5710 5712 5714 5716 5718 5720 5723 5724 5726 5729 5730 5730 5731 5732 5734 5734 5735 5736 5736 5737
5690 5692 5693 5694 5695 5696 5697 5697 5698 5699 5699 5699 5699 5699 5699 5699 5699 5700 5701 5702 5703 5704 5706 5709 5711 5713 5714 5716 5717 5719 5720 5721 5723 5723 5724 5724 5724 5724
5686 5688 5689 5689 5690 5691 5691 5691 5692 5692 5692 5692 5692 5691 5691 5691 5691 5691 5692 5693 5693 5694 5696 5698 5699 5700 5701 5703 5705 5707 5708 5709 5710 5711 5712 5712 5712 5712
5683 5683 5684 5684 5685 5685 5685 5685 5685 5685 5684 5684 5683 5683 5682 5682 5682 5682 5682 5683 5683 5684 5685 5687 5688 5689 5690 5691 5693 5694 5696 5696 5697 5698 5699 5699 5699 5699
5679 5679 5679 5679 5679 5679 5679 5678 5678 5678 5677 5675 5674 5673 5672 5672 5671 5671 5671 5672 5672 5673 5674 5675 5677 5678 5679 5680 5682 5683 5684 5685 5685 5686 5686 5687 5687 5688